• en France
  • Liste des pays
  • À 7 jours
  • Température de l'eau
  • Carte satellitaire
  • Carte météo
  • Widgets météo
  • user-avatar
    Se connecter

    Météo par heure à Vratsa

    Ce jour, 25 Septembre, Lundi

    Heure Température Précipitation Vent Pression Humidité
    00:00 +14°C° 0 mm 1 m/s 711 mmHg 58%
    01:00 +14°C° 0 mm 1 m/s 711 mmHg 60%
    02:00 +14°C° 0 mm 1 m/s 711 mmHg 66%
    03:00 +14°C° 0,2 mm 1 m/s 711 mmHg 68%
    04:00 +13°C° 0,2 mm 1 m/s 711 mmHg 71%
    05:00 +12°C° 0,2 mm 0 m/s 711 mmHg 74%
    06:00 +12°C° 0,3 mm 0 m/s 711 mmHg 75%
    07:00 +12°C° 0,3 mm 0 m/s 711 mmHg 75%
    08:00 +14°C° 0 mm 1 m/s 711 mmHg 73%
    09:00 +15°C° 0,1 mm 1 m/s 712 mmHg 68%
    10:00 +16°C° 0,1 mm 2 m/s 712 mmHg 63%
    11:00 +17°C° 0,1 mm 2 m/s 712 mmHg 58%
    12:00 +18°C° 0 mm 2 m/s 712 mmHg 54%
    13:00 +19°C° 0 mm 3 m/s 712 mmHg 51%
    14:00 +20°C° 0 mm 3 m/s 712 mmHg 47%
    15:00 +20°C° 0 mm 3 m/s 712 mmHg 48%
    16:00 +19°C° 0 mm 3 m/s 712 mmHg 49%
    17:00 +19°C° 0 mm 3 m/s 712 mmHg 49%
    18:00 +18°C° 0 mm 3 m/s 712 mmHg 53%
    19:00 +17°C° 0 mm 2 m/s 711 mmHg 57%
    20:00 +16°C° 0 mm 2 m/s 711 mmHg 61%
    21:00 +15°C° 0 mm 2 m/s 712 mmHg 63%
    22:00 +15°C° 0 mm 1 m/s 712 mmHg 65%
    23:00 +15°C° 0 mm 1 m/s 712 mmHg 68%

    Demain, 26 Septembre, Mardi

    Heure Température Précipitation Vent Pression Humidité
    00:00 +14°C° 0,1 mm 1 m/s 711 mmHg 70%
    01:00 +14°C° 0,1 mm 1 m/s 711 mmHg 73%
    02:00 +14°C° 0,1 mm 1 m/s 711 mmHg 75%
    03:00 +13°C° 0,2 mm 1 m/s 711 mmHg 78%
    04:00 +13°C° 0,2 mm 1 m/s 711 mmHg 80%
    05:00 +12°C° 0,2 mm 1 m/s 710 mmHg 83%
    06:00 +13°C° 0,2 mm 1 m/s 711 mmHg 82%
    07:00 +13°C° 0,2 mm 1 m/s 711 mmHg 81%
    08:00 +14°C° 0,2 mm 2 m/s 711 mmHg 80%
    09:00 +14°C° 0,1 mm 2 m/s 711 mmHg 78%
    10:00 +15°C° 0,1 mm 2 m/s 712 mmHg 76%
    11:00 +15°C° 0,1 mm 2 m/s 712 mmHg 74%
    12:00 +16°C° 0,4 mm 2 m/s 712 mmHg 75%
    13:00 +16°C° 0,4 mm 2 m/s 711 mmHg 75%
    14:00 +16°C° 0,4 mm 2 m/s 711 mmHg 76%
    15:00 +16°C° 0,3 mm 2 m/s 711 mmHg 77%
    16:00 +16°C° 0,3 mm 2 m/s 711 mmHg 77%
    17:00 +16°C° 0,3 mm 2 m/s 711 mmHg 78%
    18:00 +15°C° 1,5 mm 2 m/s 712 mmHg 81%
    19:00 +15°C° 1,5 mm 2 m/s 712 mmHg 84%
    20:00 +15°C° 1,5 mm 2 m/s 712 mmHg 87%
    21:00 +14°C° 2,3 mm 2 m/s 712 mmHg 87%
    22:00 +14°C° 2,3 mm 2 m/s 712 mmHg 87%
    23:00 +14°C° 2,3 mm 2 m/s 713 mmHg 87%

    Après-demain, 27 Septembre, Mercredi

    Heure Température Précipitation Vent Pression Humidité
    00:00 +14°C° 1,2 mm 2 m/s 713 mmHg 87%
    01:00 +13°C° 1,2 mm 2 m/s 713 mmHg 86%
    02:00 +13°C° 1,2 mm 2 m/s 713 mmHg 86%
    03:00 +13°C° 0,5 mm 2 m/s 713 mmHg 84%
    04:00 +12°C° 0,5 mm 2 m/s 713 mmHg 83%
    05:00 +12°C° 0,5 mm 2 m/s 713 mmHg 82%
    06:00 +12°C° 0,4 mm 2 m/s 713 mmHg 81%
    07:00 +12°C° 0,4 mm 2 m/s 714 mmHg 79%
    08:00 +12°C° 0,4 mm 2 m/s 714 mmHg 77%
    09:00 +11°C° 0,5 mm 3 m/s 714 mmHg 76%
    10:00 +12°C° 0,5 mm 3 m/s 714 mmHg 74%
    11:00 +12°C° 0,5 mm 3 m/s 715 mmHg 73%
    12:00 +12°C° 0,5 mm 3 m/s 715 mmHg 73%
    13:00 +12°C° 0,5 mm 3 m/s 715 mmHg 73%
    14:00 +12°C° 0,5 mm 3 m/s 715 mmHg 73%
    15:00 +13°C° 0,2 mm 2 m/s 715 mmHg 75%
    16:00 +13°C° 0,2 mm 2 m/s 715 mmHg 76%
    17:00 +13°C° 0,2 mm 2 m/s 715 mmHg 78%
    18:00 +13°C° 0,1 mm 2 m/s 715 mmHg 81%
    19:00 +12°C° 0,1 mm 1 m/s 715 mmHg 84%
    20:00 +12°C° 0,1 mm 1 m/s 715 mmHg 87%
    21:00 +12°C° 0 mm 1 m/s 715 mmHg 87%
    22:00 +12°C° 0 mm 1 m/s 716 mmHg 87%
    23:00 +12°C° 0 mm 1 m/s 716 mmHg 87%

    28 Septembre, Jeudi

    Heure Température Précipitation Vent Pression Humidité
    00:00 +11°C° 0 mm 1 m/s 716 mmHg 88%
    01:00 +11°C° 0 mm 1 m/s 716 mmHg 88%
    02:00 +10°C° 0 mm 2 m/s 716 mmHg 88%
    03:00 +10°C° 0 mm 2 m/s 716 mmHg 88%
    04:00 +9°C° 0 mm 2 m/s 716 mmHg 89%
    05:00 +9°C° 0 mm 2 m/s 715 mmHg 89%
    06:00 +9°C° 0 mm 2 m/s 716 mmHg 85%
    07:00 +9°C° 0 mm 2 m/s 716 mmHg 81%
    08:00 +10°C° 0 mm 2 m/s 716 mmHg 77%
    09:00 +11°C° 0 mm 3 m/s 716 mmHg 71%
    10:00 +12°C° 0 mm 3 m/s 716 mmHg 65%
    11:00 +14°C° 0 mm 4 m/s 717 mmHg 59%
    12:00 +14°C° 0 mm 4 m/s 716 mmHg 57%
    13:00 +14°C° 0 mm 4 m/s 716 mmHg 55%
    14:00 +15°C° 0 mm 4 m/s 716 mmHg 53%
    15:00 +14°C° 0 mm 4 m/s 716 mmHg 55%
    16:00 +14°C° 0 mm 4 m/s 716 mmHg 56%
    17:00 +14°C° 0 mm 4 m/s 715 mmHg 57%
    18:00 +12°C° 0 mm 3 m/s 715 mmHg 62%
    19:00 +11°C° 0 mm 3 m/s 715 mmHg 67%
    20:00 +10°C° 0 mm 2 m/s 716 mmHg 71%
    21:00 +9°C° 0 mm 2 m/s 716 mmHg 72%
    22:00 +9°C° 0 mm 2 m/s 716 mmHg 72%
    23:00 +8°C° 0 mm 2 m/s 716 mmHg 73%

    29 Septembre, Vendredi

    Heure Température Précipitation Vent Pression Humidité
    00:00 +8°C° 0 mm 2 m/s 716 mmHg 75%
    01:00 +7°C° 0 mm 2 m/s 715 mmHg 76%
    02:00 +7°C° 0 mm 2 m/s 715 mmHg 78%
    03:00 +6°C° 0 mm 2 m/s 715 mmHg 80%
    04:00 +6°C° 0 mm 2 m/s 715 mmHg 82%
    05:00 +6°C° 0 mm 1 m/s 715 mmHg 85%
    06:00 +6°C° 0 mm 2 m/s 715 mmHg 81%
    07:00 +7°C° 0 mm 2 m/s 715 mmHg 77%
    08:00 +7°C° 0 mm 2 m/s 715 mmHg 74%
    09:00 +9°C° 0 mm 3 m/s 715 mmHg 67%
    10:00 +10°C° 0 mm 3 m/s 715 mmHg 60%
    11:00 +12°C° 0 mm 3 m/s 715 mmHg 53%
    12:00 +12°C° 0 mm 3 m/s 715 mmHg 50%
    13:00 +13°C° 0 mm 3 m/s 714 mmHg 48%
    14:00 +14°C° 0 mm 3 m/s 714 mmHg 45%
    15:00 +13°C° 0 mm 3 m/s 714 mmHg 45%
    16:00 +13°C° 0 mm 3 m/s 713 mmHg 46%
    17:00 +13°C° 0 mm 3 m/s 713 mmHg 47%
    18:00 +12°C° 0 mm 2 m/s 713 mmHg 51%
    19:00 +10°C° 0 mm 2 m/s 713 mmHg 56%
    20:00 +9°C° 0 mm 1 m/s 714 mmHg 61%
    21:00 +8°C° 0 mm 1 m/s 713 mmHg 63%
    22:00 +8°C° 0 mm 1 m/s 713 mmHg 65%
    23:00 +7°C° 0 mm 1 m/s 713 mmHg 67%

    30 Septembre, Samedi

    Heure Température Précipitation Vent Pression Humidité
    00:00 +7°C° 0 mm 1 m/s 713 mmHg 68%
    01:00 +7°C° 0 mm 1 m/s 713 mmHg 69%
    02:00 +6°C° 0 mm 1 m/s 713 mmHg 70%
    03:00 +5°C° 0 mm 0 m/s 713 mmHg 72%
    04:00 +5°C° 0 mm 0 m/s 712 mmHg 73%
    05:00 +4°C° 0 mm 0 m/s 712 mmHg 74%
    06:00 +5°C° 0 mm 0 m/s 712 mmHg 71%
    07:00 +6°C° 0 mm 0 m/s 712 mmHg 67%
    08:00 +7°C° 0 mm 0 m/s 713 mmHg 63%
    09:00 +10°C° 0 mm 1 m/s 712 mmHg 55%
    10:00 +12°C° 0 mm 2 m/s 712 mmHg 47%
    11:00 +13°C° 0 mm 3 m/s 712 mmHg 39%
    12:00 +13°C° 0 mm 3 m/s 712 mmHg 37%
    13:00 +14°C° 0 mm 3 m/s 711 mmHg 34%
    14:00 +14°C° 0 mm 3 m/s 711 mmHg 32%
    15:00 +15°C° 0 mm 2 m/s 711 mmHg 34%
    16:00 +14°C° 0 mm 2 m/s 710 mmHg 36%
    17:00 +14°C° 0 mm 2 m/s 710 mmHg 37%
    18:00 +12°C° 0 mm 2 m/s 710 mmHg 41%
    19:00 +11°C° 0 mm 1 m/s 710 mmHg 45%
    20:00 +9°C° 0 mm 1 m/s 710 mmHg 49%
    21:00 +9°C° 0 mm 1 m/s 710 mmHg 50%
    22:00 +8°C° 0 mm 1 m/s 710 mmHg 51%
    23:00 +8°C° 0 mm 1 m/s 710 mmHg 53%
    Voir plus